QPF
0.00 0.00 0.00 0.00 0.00 0.01 0.00 0.00 0.00 0.00 0.00 0.00 0.00 0.00 0.00 0.00 0.00 0.00 0.00 0.00 0.00 0.00 0.00 0.00 0.00 0.00 0.00 0.00 0.00 0.00 0.00 0.00 0.00 0.00 0.00 0.00 0.00 0.00 0.00 0.00 0.00 0.00 0.00 0.00 0.00 0.00 0.00
0.00 0.00 0.00 0.00 0.00 0.00 0.00 0.00 0.00 0.00 0.00 0.00 0.00 0.00 0.00 0.00 0.00 0.00 0.00 0.00 0.00 0.00 0.00 0.00 0.00 0.00 0.00 0.00 0.00 0.00 0.00 0.00 0.00 0.00 0.00 0.00 0.00 0.00 0.00 0.00 0.00 0.00 0.00 0.00 0.00 0.00 0.00
0.00 0.00 0.00 0.00 0.00 0.00 0.00 0.00 0.00 0.00 0.00 0.00 0.00 0.00 0.00 0.00 0.00 0.00 0.00 0.00 0.00 0.00 0.00 0.00 0.00 0.00 0.00 0.00 0.00 0.00 0.00 0.00 0.00 0.00 0.00 0.00 0.00 0.00 0.00 0.00 0.00 0.00 0.00 0.00 0.00 0.00 0.00
0.00 0.00 0.00 0.00 0.00 0.00 0.00 0.00 0.00 0.00 0.00 0.00 0.00 0.00 0.00 0.00 0.00 0.00 0.00 0.00 0.00 0.00 0.00 0.00 0.00 0.00 0.00 0.00 0.00 0.00 0.00 0.00 0.00 0.00 0.00 0.00 0.00 0.00 0.00 0.00 0.00 0.00 0.00 0.00 0.00 0.00 0.00
0.00 0.00 0.00 0.00 0.00 0.00 0.00 0.00 0.00 0.00 0.00 0.00 0.00 0.00 0.00 0.00 0.00 0.00 0.00 0.00 0.00 0.00 0.00 0.00 0.00 0.00 0.00 0.00 0.00 0.00 0.00 0.00 0.00 0.00 0.00 0.00 0.00 0.00 0.00 0.00 0.00 0.00 0.00 0.00 0.00 0.00 0.00
0.00 0.00 0.00 0.00 0.00 0.00 0.00 0.00 0.00 0.00 0.00 0.00 0.00 0.00 0.00 0.00 0.00 0.00 0.00 0.00 0.00 0.00 0.00 0.00 0.00 0.00 0.00 0.00 0.00 0.00 0.00 0.00 0.00 0.00 0.00 0.00 0.00 0.00 0.00 0.00 0.00 0.00 0.00 0.00 0.00 0.00 0.00
0.00 0.00 0.00 0.00 0.00 0.00 0.00 0.00 0.00 0.00 0.00 0.00 0.00 0.00 0.00 0.00 0.00 0.00 0.00 0.00 0.00 0.00 0.00 0.00 0.00 0.00 0.00 0.00 0.00 0.00 0.00 0.00 0.00 0.00 0.00 0.00 0.00 0.00 0.00 0.00 0.00 0.00 0.00 0.00 0.00 0.00 0.00
0.00 0.00 0.00 0.00 0.00 0.00 0.00 0.01 0.01 0.01 0.01 0.00 0.00 0.00 0.00 0.00 0.00 0.00 0.00 0.00 0.00 0.00 0.00 0.00 0.00 0.00 0.00 0.00 0.00 0.00 0.00 0.00 0.00 0.00 0.00 0.00 0.00 0.00 0.00 0.00 0.00 0.00 0.00 0.00 0.00 0.00 0.00
0.00 0.00 0.00 0.00 0.00 0.01 0.01 0.02 0.02 0.02 0.01 0.00 0.00 0.00 0.00 0.00 0.00 0.00 0.00 0.00 0.00 0.00 0.00 0.00 0.00 0.00 0.00 0.00 0.00 0.00 0.00 0.00 0.00 0.00 0.00 0.00 0.00 0.00 0.00 0.00 0.00 0.00 0.00 0.00 0.00 0.00 0.00
0.00 0.00 0.00 0.00 0.00 0.01 0.02 0.02 0.02 0.01 0.01 0.01 0.00 0.00 0.00 0.00 0.00 0.00 0.00 0.00 0.00 0.00 0.00 0.00 0.00 0.00 0.00 0.00 0.00 0.00 0.00 0.00 0.00 0.00 0.00 0.00 0.00 0.00 0.00 0.00 0.00 0.00 0.00 0.00 0.00 0.00 0.00
0.00 0.00 0.00 0.00 0.00 0.00 0.01 0.02 0.01 0.01 0.01 0.01 0.01 0.00 0.00 0.00 0.00 0.00 0.00 0.00 0.00 0.00 0.00 0.00 0.00 0.00 0.00 0.00 0.00 0.00 0.00 0.00 0.00 0.00 0.00 0.00 0.00 0.00 0.00 0.00 0.00 0.00 0.00 0.00 0.00 0.00 0.00
0.00 0.00 0.00 0.00 0.00 0.00 0.00 0.00 0.01 0.01 0.01 0.00 0.00 0.00 0.00 0.00 0.00 0.00 0.00 0.00 0.00 0.00 0.00 0.00 0.00 0.00 0.00 0.00 0.00 0.00 0.00 0.00 0.00 0.00 0.00 0.00 0.00 0.00 0.00 0.00 0.00 0.00 0.00 0.00 0.00 0.00 0.00
0.00 0.00 0.00 0.00 0.00 0.00 0.00 0.00 0.00 0.00 0.00 0.00 0.00 0.00 0.00 0.00 0.00 0.00 0.00 0.00 0.00 0.00 0.00 0.00 0.00 0.00 0.00 0.00 0.00 0.00 0.00 0.00 0.00 0.00 0.00 0.00 0.00 0.00 0.00 0.00 0.00 0.00 0.00 0.00 0.00 0.00 0.00
0.02 0.01 0.01 0.00 0.00 0.00 0.00 0.00 0.00 0.00 0.00 0.00 0.00 0.00 0.00 0.00 0.00 0.00 0.00 0.00 0.00 0.00 0.00 0.00 0.00 0.00 0.00 0.00 0.00 0.00 0.00 0.00 0.00 0.00 0.00 0.00 0.00 0.00 0.00 0.00 0.00 0.00 0.00 0.00 0.00 0.00 0.00
0.01 0.00 0.01 0.01 0.00 0.00 0.00 0.00 0.00 0.00 0.00 0.00 0.00 0.00 0.00 0.00 0.00 0.00 0.00 0.00 0.00 0.00 0.00 0.00 0.00 0.00 0.00 0.00 0.00 0.00 0.00 0.00 0.00 0.00 0.00 0.00 0.00 0.00 0.00 0.00 0.00 0.00 0.00 0.00 0.00 0.00 0.00
0.00 0.00 0.00 0.00 0.00 0.00 0.00 0.00 0.00 0.00 0.00 0.00 0.00 0.00 0.00 0.00 0.00 0.00 0.01 0.00 0.00 0.00 0.00 0.00 0.00 0.00 0.00 0.00 0.00 0.00 0.00 0.00 0.00 0.00 0.00 0.00 0.00 0.00 0.00 0.00 0.00 0.00 0.00 0.00 0.00 0.00 0.00
0.00 0.00 0.00 0.00 0.00 0.00 0.00 0.00 0.00 0.00 0.00 0.00 0.00 0.00 0.00 0.00 0.00 0.01 0.01 0.00 0.00 0.00 0.00 0.00 0.00 0.00 0.00 0.00 0.00 0.00 0.00 0.00 0.00 0.00 0.00 0.00 0.00 0.00 0.00 0.00 0.00 0.00 0.00 0.00 0.00 0.00 0.00
0.00 0.00 0.00 0.00 0.01 0.01 0.00 0.00 0.00 0.00 0.00 0.00 0.00 0.00 0.00 0.00 0.00 0.01 0.01 0.00 0.00 0.00 0.00 0.00 0.00 0.00 0.00 0.00 0.00 0.00 0.00 0.00 0.00 0.00 0.00 0.00 0.00 0.00 0.00 0.00 0.00 0.00 0.00 0.00 0.00 0.00 0.00
0.00 0.00 0.01 0.02 0.02 0.02 0.00 0.00 0.00 0.00 0.00 0.00 0.00 0.00 0.00 0.00 0.00 0.00 0.00 0.00 0.00 0.00 0.00 0.00 0.00 0.00 0.00 0.00 0.00 0.00 0.00 0.00 0.00 0.00 0.00 0.00 0.00 0.00 0.00 0.00 0.00 0.00 0.00 0.00 0.00 0.00 0.00
0.00 0.00 0.01 0.01 0.01 0.00 0.00 0.00 0.00 0.00 0.00 0.00 0.00 0.00 0.00 0.00 0.00 0.00 0.00 0.00 0.00 0.00 0.00 0.00 0.00 0.00 0.00 0.00 0.00 0.00 0.00 0.00 0.00 0.00 0.00 0.00 0.00 0.00 0.00 0.00 0.00 0.00 0.00 0.00 0.00 0.00 0.00
0.00 0.00 0.00 0.00 0.01 0.00 0.00 0.00 0.00 0.00 0.00 0.00 0.00 0.00 0.00 0.00 0.00 0.00 0.00 0.00 0.00 0.00 0.00 0.00 0.00 0.00 0.00 0.00 0.00 0.00 0.00 0.00 0.00 0.00 0.00 0.00 0.00 0.00 0.00 0.00 0.00 0.00 0.00 0.00 0.00 0.00 0.00
0.00 0.01 0.01 0.01 0.01 0.00 0.00 0.00 0.00 0.00 0.00 0.00 0.00 0.00 0.00 0.00 0.00 0.00 0.00 0.00 0.00 0.00 0.00 0.00 0.00 0.00 0.00 0.00 0.00 0.00 0.00 0.00 0.00 0.00 0.00 0.00 0.00 0.00 0.00 0.00 0.00 0.00 0.00 0.00 0.00 0.00 0.00
0.00 0.00 0.02 0.01 0.00 0.00 0.00 0.00 0.00 0.00 0.00 0.00 0.00 0.00 0.00 0.00 0.00 0.00 0.00 0.00 0.00 0.00 0.00 0.00 0.00 0.00 0.00 0.00 0.00 0.00 0.00 0.00 0.00 0.00 0.00 0.00 0.00 0.00 0.00 0.00 0.00 0.00 0.00 0.00 0.00 0.00 0.00
0.00 0.00 0.01 0.00 0.00 0.00 0.00 0.00 0.00 0.00 0.00 0.00 0.00 0.00 0.00 0.00 0.00 0.00 0.00 0.00 0.00 0.00 0.00 0.00 0.00 0.00 0.00 0.00 0.00 0.00 0.00 0.00 0.00 0.00 0.00 0.00 0.00 0.00 0.00 0.00 0.00 0.00 0.00 0.00 0.00 0.00 0.00
0.00 0.00 0.01 0.00 0.00 0.00 0.00 0.00 0.00 0.00 0.00 0.00 0.00 0.00 0.00 0.00 0.00 0.00 0.00 0.00 0.00 0.00 0.00 0.00 0.00 0.00 0.00 0.00 0.00 0.00 0.00 0.00 0.00 0.00 0.00 0.00 0.00 0.00 0.00 0.00 0.00 0.00 0.00 0.00 0.00 0.00 0.00
0.00 0.00 0.00 0.00 0.00 0.00 0.00 0.00 0.00 0.00 0.00 0.00 0.00 0.00 0.00 0.00 0.00 0.00 0.00 0.00 0.00 0.00 0.00 0.00 0.00 0.00 0.00 0.00 0.00 0.00 0.00 0.00 0.00 0.00 0.00 0.00 0.00 0.00 0.00 0.00 0.00 0.00 0.00 0.00 0.00 0.00 0.00
0.01 0.01 0.00 0.00 0.00 0.00 0.00 0.00 0.00 0.00 0.00 0.00 0.00 0.00 0.00 0.00 0.00 0.00 0.00 0.00 0.00 0.00 0.00 0.00 0.00 0.00 0.00 0.00 0.00 0.00 0.00 0.00 0.00 0.00 0.00 0.00 0.00 0.00 0.00 0.00 0.00 0.00 0.00 0.00 0.00 0.00 0.00
0.03 0.02 0.00 0.00 0.00 0.00 0.00 0.00 0.00 0.00 0.00 0.00 0.00 0.00 0.00 0.00 0.00 0.00 0.00 0.00 0.00 0.00 0.00 0.00 0.00 0.00 0.00 0.00 0.00 0.00 0.00 0.00 0.00 0.00 0.00 0.00 0.00 0.00 0.00 0.00 0.00 0.00 0.00 0.00 0.00 0.00 0.00
0.03 0.02 0.01 0.00 0.00 0.00 0.00 0.00 0.00 0.00 0.00 0.00 0.00 0.00 0.00 0.00 0.00 0.00 0.00 0.00 0.00 0.00 0.00 0.00 0.00 0.00 0.00 0.00 0.00 0.00 0.00 0.00 0.00 0.00 0.00 0.00 0.00 0.00 0.00 0.00 0.00 0.00 0.00 0.00 0.00 0.00 0.00
MSLP
1014.04 1013.89 1013.61 1013.31 1013.06 1012.66 1012.49 1012.20 1012.14 1012.20 1012.36 1012.63 1013.02 1013.43 1013.92 1014.22 1014.77 1015.04 1015.41 1015.67 1015.75 1015.68 1015.68 1015.52 1015.29 1015.25 1014.89 1014.13 1011.55 1009.99 1010.28 1010.24 1010.30 1010.58 1010.99 1011.40 1011.84 1012.02 1012.13 1011.94 1011.84 1011.92 1011.49 1010.90 1010.41 1010.25 1009.85
1013.44 1013.30 1013.06 1012.67 1012.17 1011.74 1011.40 1011.38 1011.30 1011.15 1011.51 1011.78 1012.28 1012.57 1013.13 1013.81 1014.24 1014.78 1015.18 1015.50 1015.74 1015.81 1015.42 1015.53 1015.35 1015.19 1015.09 1013.35 1009.64 1009.75 1010.02 1010.35 1010.10 1010.25 1010.52 1010.93 1011.25 1011.25 1011.43 1011.36 1011.39 1010.85 1010.80 1010.41 1010.03 1009.71 1009.46
1012.95 1012.52 1012.21 1011.75 1011.17 1010.81 1010.40 1010.05 1009.92 1009.83 1010.25 1010.82 1011.19 1011.98 1012.42 1013.00 1013.77 1014.37 1014.80 1015.40 1015.31 1015.53 1015.52 1015.28 1015.31 1015.28 1014.42 1011.42 1009.34 1009.58 1010.12 1010.38 1009.88 1009.60 1010.06 1010.16 1010.39 1010.87 1010.97 1010.97 1010.63 1010.65 1010.73 1010.32 1009.74 1009.24 1009.09
1012.41 1012.00 1011.46 1011.02 1010.21 1009.57 1009.00 1008.82 1008.70 1008.66 1009.18 1009.73 1010.48 1011.13 1011.98 1012.64 1013.19 1014.15 1014.88 1014.83 1015.21 1015.21 1015.23 1014.93 1015.00 1014.97 1012.74 1010.06 1009.67 1009.29 1009.49 1009.94 1009.89 1009.55 1009.41 1009.67 1010.10 1010.63 1010.80 1010.67 1010.74 1010.91 1010.97 1010.70 1009.65 1009.22 1008.65
1011.66 1011.32 1010.78 1009.87 1009.02 1007.82 1007.55 1007.38 1007.50 1007.71 1008.19 1008.78 1009.47 1010.24 1011.10 1012.06 1012.90 1013.65 1014.59 1014.60 1015.21 1014.45 1015.09 1014.72 1014.93 1014.42 1011.35 1009.58 1009.36 1007.85 1008.44 1009.09 1009.35 1009.46 1009.50 1009.45 1009.97 1010.44 1010.58 1011.04 1011.60 1011.49 1011.36 1011.07 1010.31 1009.44 1009.15
1010.94 1010.57 1009.73 1008.72 1007.68 1006.65 1006.14 1006.17 1006.24 1006.77 1007.25 1008.07 1008.78 1009.68 1010.65 1011.44 1012.65 1013.38 1014.13 1014.39 1014.71 1014.26 1014.86 1014.13 1014.25 1014.22 1010.40 1008.56 1007.83 1007.14 1006.96 1008.38 1008.96 1009.32 1009.59 1009.82 1009.98 1010.49 1011.07 1011.25 1011.23 1011.69 1011.83 1011.48 1010.99 1009.81 1009.44
1010.35 1009.82 1008.81 1007.59 1006.45 1005.38 1004.81 1004.75 1005.42 1005.63 1006.41 1007.13 1007.96 1009.01 1010.27 1011.21 1012.29 1013.30 1014.10 1014.48 1014.96 1014.50 1013.90 1012.27 1011.85 1010.60 1008.75 1007.81 1007.13 1006.94 1006.71 1008.11 1008.61 1009.10 1009.47 1009.37 1009.94 1010.10 1009.85 1010.71 1010.87 1011.31 1011.58 1011.58 1011.04 1009.86 1009.78
1009.82 1009.26 1008.11 1006.55 1004.88 1004.37 1003.92 1003.82 1004.37 1005.16 1005.79 1006.77 1007.38 1008.16 1009.42 1010.84 1011.78 1012.64 1013.27 1013.96 1012.73 1013.36 1013.26 1011.87 1010.49 1009.85 1008.99 1008.70 1008.13 1006.65 1006.56 1007.49 1008.50 1008.68 1009.43 1009.95 1009.18 1009.02 1009.85 1010.50 1010.92 1011.23 1011.47 1011.39 1010.64 1009.66 1010.00
1009.48 1008.83 1007.33 1005.67 1004.10 1003.18 1003.28 1003.22 1003.86 1004.49 1005.54 1006.49 1007.50 1008.39 1009.59 1010.67 1011.84 1012.70 1012.93 1012.85 1012.35 1012.58 1013.30 1010.07 1007.79 1007.53 1007.69 1008.43 1007.63 1006.51 1006.47 1006.61 1007.66 1008.23 1008.79 1009.22 1008.63 1008.53 1009.30 1009.99 1010.53 1010.69 1011.03 1010.90 1010.53 1009.99 1009.78
1009.14 1008.32 1007.17 1005.32 1003.19 1002.88 1002.86 1002.99 1003.73 1004.34 1005.08 1006.62 1007.61 1008.63 1009.74 1010.87 1012.37 1012.35 1012.92 1012.08 1012.38 1012.96 1012.46 1008.67 1007.28 1005.30 1005.65 1006.86 1006.36 1005.64 1005.67 1006.26 1007.21 1007.80 1008.52 1008.76 1008.27 1008.42 1009.00 1009.18 1009.62 1009.98 1009.53 1009.84 1010.06 1010.66 1010.61
1009.20 1008.55 1007.22 1005.71 1004.73 1003.38 1003.11 1003.20 1003.75 1004.51 1005.79 1006.98 1008.42 1009.09 1010.20 1011.01 1012.01 1012.50 1012.22 1011.41 1012.16 1012.72 1011.79 1006.15 1005.55 1004.03 1004.52 1004.88 1003.98 1004.41 1004.84 1005.57 1006.56 1007.28 1008.06 1007.89 1007.68 1007.74 1008.03 1008.05 1008.44 1008.72 1008.41 1009.17 1009.62 1010.24 1010.45
1008.99 1008.79 1007.86 1006.78 1005.79 1005.62 1004.78 1005.17 1006.06 1006.60 1007.45 1008.35 1009.17 1010.03 1010.65 1011.70 1012.13 1012.17 1011.95 1011.72 1011.91 1012.24 1009.23 1005.25 1004.22 1004.35 1005.04 1004.54 1003.67 1004.06 1004.76 1005.11 1005.93 1007.06 1007.42 1007.51 1007.08 1006.98 1006.94 1007.02 1007.45 1007.59 1008.22 1008.93 1009.54 1010.17 1010.29
1008.85 1008.62 1008.24 1007.75 1006.89 1006.55 1006.24 1006.62 1007.00 1007.61 1008.75 1009.75 1010.52 1010.42 1011.23 1011.94 1012.46 1011.80 1011.84 1012.07 1012.13 1010.72 1007.04 1005.17 1004.31 1004.21 1004.30 1004.36 1003.89 1003.94 1004.89 1005.98 1006.55 1007.27 1007.75 1007.45 1007.00 1006.64 1006.62 1006.99 1007.31 1007.75 1008.52 1009.51 1010.13 1010.36 1009.83
1008.69 1008.42 1008.30 1008.18 1008.06 1007.61 1007.15 1007.56 1007.83 1008.35 1009.36 1010.16 1010.69 1011.07 1011.34 1011.74 1011.91 1011.95 1011.73 1011.84 1010.87 1008.23 1006.64 1005.07 1004.20 1004.24 1004.27 1004.06 1004.43 1004.52 1005.40 1006.82 1007.40 1007.52 1007.70 1007.72 1007.80 1007.37 1007.25 1007.32 1007.64 1007.94 1008.47 1009.35 1009.73 1010.05 1009.74
1008.80 1008.67 1008.53 1008.21 1008.49 1008.25 1008.10 1008.43 1008.67 1009.08 1009.67 1010.49 1011.13 1011.62 1011.74 1011.36 1011.69 1011.84 1011.95 1011.42 1009.56 1007.88 1006.94 1006.03 1004.66 1004.93 1004.76 1004.54 1004.66 1005.50 1006.68 1007.65 1008.18 1008.01 1008.08 1008.30 1008.51 1008.34 1008.08 1007.96 1008.20 1008.41 1008.97 1009.42 1009.87 1010.11 1010.03
1008.66 1008.99 1008.61 1008.47 1008.58 1008.62 1008.78 1008.84 1009.11 1009.48 1010.07 1010.54 1011.17 1011.60 1011.38 1010.88 1011.30 1011.60 1011.97 1010.34 1008.86 1007.85 1007.17 1006.70 1006.97 1006.87 1005.69 1005.65 1005.58 1006.21 1007.70 1008.52 1008.57 1008.63 1008.23 1008.98 1009.07 1009.18 1008.80 1008.79 1008.90 1008.96 1009.63 1010.26 1010.86 1011.15 1010.70
1008.18 1008.72 1008.89 1008.54 1008.60 1008.84 1009.22 1009.23 1009.48 1009.75 1010.25 1010.75 1011.13 1011.37 1011.13 1011.03 1011.17 1011.80 1011.15 1009.98 1008.51 1007.98 1007.41 1007.54 1007.55 1007.26 1006.72 1006.61 1006.69 1007.54 1008.68 1009.18 1008.95 1009.14 1008.95 1009.52 1009.91 1010.23 1009.60 1009.94 1010.31 1010.43 1010.67 1011.39 1011.90 1012.27 1011.80
1007.71 1008.28 1008.57 1008.62 1008.61 1008.89 1009.24 1009.46 1009.66 1009.94 1010.41 1011.04 1011.27 1011.55 1011.33 1011.37 1011.98 1011.35 1010.46 1009.33 1008.41 1008.05 1007.67 1008.01 1008.22 1007.90 1007.71 1007.69 1007.98 1008.56 1009.29 1009.45 1009.53 1009.66 1010.07 1010.54 1011.09 1011.47 1011.26 1011.12 1011.00 1011.29 1011.99 1012.36 1013.02 1013.31 1013.09
1007.23 1007.77 1008.06 1008.35 1008.53 1008.87 1009.25 1009.45 1009.70 1009.96 1010.36 1010.98 1011.24 1011.76 1011.73 1011.77 1011.50 1010.87 1009.73 1008.96 1008.58 1008.39 1008.48 1008.53 1008.64 1008.56 1008.43 1008.71 1009.11 1009.23 1010.03 1010.53 1010.14 1010.30 1010.69 1011.09 1011.87 1012.26 1012.39 1012.35 1012.05 1012.42 1012.94 1013.55 1014.10 1014.27 1013.80
1006.83 1007.16 1007.63 1008.04 1008.46 1008.87 1009.28 1009.47 1009.67 1009.94 1010.20 1010.69 1011.15 1012.04 1012.34 1012.16 1011.27 1010.57 1009.63 1009.32 1009.14 1008.77 1008.80 1008.81 1009.03 1009.08 1009.30 1009.53 1009.75 1010.43 1010.91 1011.16 1011.00 1010.98 1011.12 1011.35 1012.29 1012.46 1012.87 1013.15 1013.38 1013.44 1013.62 1014.03 1014.54 1014.66 1013.87
1006.38 1006.91 1007.40 1007.83 1008.35 1008.89 1009.24 1009.40 1009.68 1009.83 1009.98 1010.58 1010.85 1010.68 1010.27 1011.25 1010.81 1010.05 1009.23 1008.79 1008.72 1008.93 1009.00 1009.15 1009.50 1009.63 1009.79 1010.40 1010.73 1011.25 1011.47 1011.59 1011.68 1011.85 1012.13 1012.44 1013.16 1013.54 1013.75 1013.78 1013.88 1013.82 1013.86 1013.70 1014.33 1013.99 1014.01
1006.02 1006.73 1007.26 1007.72 1008.31 1008.80 1009.12 1009.40 1009.52 1009.68 1009.92 1010.56 1010.43 1010.07 1009.82 1009.84 1009.33 1009.48 1009.27 1008.97 1008.81 1009.26 1009.44 1009.68 1009.96 1010.28 1010.32 1010.87 1011.23 1011.72 1011.87 1012.19 1012.36 1012.64 1013.03 1013.56 1014.15 1014.43 1014.45 1014.13 1013.89 1013.72 1013.35 1013.56 1013.65 1013.41 1012.86
1005.88 1006.53 1007.03 1007.65 1008.25 1008.67 1008.95 1009.15 1009.34 1009.48 1009.74 1010.05 1009.75 1009.58 1009.86 1009.95 1009.56 1009.32 1009.13 1009.10 1009.39 1009.54 1010.19 1010.05 1010.43 1010.83 1011.20 1011.56 1011.76 1011.97 1012.11 1012.37 1012.73 1013.23 1013.79 1014.53 1014.98 1015.30 1015.10 1014.62 1014.05 1013.23 1012.45 1012.90 1013.04 1012.68 1011.94
1005.80 1006.42 1007.03 1007.69 1008.17 1008.56 1008.87 1009.06 1009.15 1009.00 1009.17 1009.44 1009.51 1009.87 1009.79 1010.13 1009.60 1009.31 1009.17 1009.30 1009.77 1009.95 1010.41 1010.88 1010.91 1011.28 1011.86 1011.87 1012.19 1012.40 1012.69 1013.01 1013.35 1013.73 1014.10 1015.02 1015.40 1015.84 1015.75 1015.11 1014.38 1013.16 1013.10 1013.19 1013.20 1012.60 1012.50
1005.72 1006.43 1007.05 1007.68 1008.13 1008.55 1008.74 1008.95 1009.02 1008.78 1008.82 1009.33 1009.56 1009.67 1009.57 1010.37 1009.98 1009.92 1009.89 1010.20 1010.50 1010.87 1011.33 1011.59 1011.90 1012.19 1012.15 1012.52 1013.13 1013.52 1013.76 1013.85 1013.90 1013.95 1014.25 1014.60 1015.45 1015.91 1016.10 1015.76 1014.61 1013.83 1014.12 1014.30 1013.99 1013.54 1013.66
1005.74 1006.46 1007.12 1007.66 1008.12 1008.47 1008.74 1008.85 1008.81 1008.57 1008.71 1009.02 1009.36 1009.47 1009.56 1010.31 1011.25 1010.76 1010.64 1010.80 1011.40 1011.96 1012.32 1012.55 1012.57 1012.49 1012.84 1014.08 1014.70 1015.19 1015.22 1014.87 1014.57 1014.53 1014.45 1014.86 1015.33 1015.99 1016.38 1016.48 1015.79 1015.29 1014.94 1014.55 1014.56 1014.47 1014.84
1005.86 1006.53 1007.18 1007.74 1008.16 1008.50 1008.72 1008.77 1008.69 1008.53 1008.49 1008.73 1009.44 1009.40 1009.57 1010.85 1011.48 1011.13 1011.12 1011.43 1011.94 1012.29 1013.04 1013.39 1013.51 1013.58 1013.97 1015.26 1016.49 1016.86 1016.44 1015.63 1015.63 1015.68 1015.26 1015.52 1015.88 1016.10 1016.46 1016.44 1015.83 1016.09 1015.27 1014.65 1015.22 1016.54 1015.99
1006.06 1006.67 1007.29 1007.78 1008.18 1008.52 1008.80 1008.93 1008.77 1008.64 1008.52 1008.64 1009.61 1009.42 1009.28 1010.81 1011.68 1011.37 1011.15 1011.47 1011.83 1012.37 1013.40 1014.09 1014.46 1014.74 1015.51 1016.51 1017.16 1017.47 1017.32 1016.72 1016.46 1016.26 1015.61 1015.58 1015.82 1015.87 1016.25 1016.69 1016.82 1016.54 1015.78 1016.33 1017.16 1017.04 1017.15
1006.24 1006.83 1007.43 1007.87 1008.30 1008.70 1008.97 1009.05 1008.82 1008.72 1008.65 1008.71 1009.46 1009.49 1009.36 1010.23 1011.97 1011.81 1011.44 1011.45 1011.47 1012.08 1013.12 1014.22 1014.80 1015.21 1015.78 1016.52 1017.58 1017.81 1017.66 1017.32 1016.85 1016.58 1016.04 1016.10 1016.35 1016.29 1016.82 1017.31 1017.46 1017.70 1017.75 1017.98 1017.89 1017.94 1018.14
Thickness
5610 5611 5615 5617 5619 5623 5622 5625 5627 5628 5627 5624 5619 5616 5612 5610 5604 5603 5600 5597 5595 5596 5597 5600 5603 5604 5607 5613 5635 5648 5646 5649 5651 5650 5644 5640 5634 5631 5628 5632 5634 5631 5637 5642 5647 5646 5647
5602 5604 5606 5610 5614 5618 5621 5619 5619 5623 5620 5618 5614 5611 5605 5598 5595 5590 5588 5586 5584 5585 5589 5589 5592 5594 5595 5603 5641 5640 5637 5636 5640 5639 5637 5634 5628 5629 5628 5629 5627 5635 5633 5637 5639 5638 5639
5592 5597 5599 5602 5608 5611 5615 5619 5618 5620 5616 5611 5609 5602 5599 5594 5585 5579 5576 5570 5574 5573 5575 5579 5580 5581 5587 5616 5632 5632 5629 5624 5629 5634 5630 5629 5628 5624 5624 5622 5628 5626 5620 5624 5629 5633 5630
5580 5584 5589 5594 5601 5607 5612 5614 5615 5615 5610 5605 5597 5593 5586 5580 5574 5566 5561 5558 5556 5557 5561 5567 5569 5572 5589 5617 5618 5623 5621 5616 5619 5621 5624 5624 5620 5615 5614 5616 5613 5610 5607 5605 5621 5622 5628
5571 5573 5577 5587 5595 5605 5607 5610 5609 5605 5600 5595 5588 5582 5575 5565 5558 5551 5542 5543 5539 5545 5542 5549 5554 5561 5585 5606 5609 5622 5620 5613 5609 5611 5611 5615 5611 5605 5607 5597 5587 5588 5585 5591 5597 5609 5613
5560 5563 5570 5580 5589 5599 5603 5603 5604 5597 5592 5584 5577 5569 5561 5552 5540 5533 5527 5526 5523 5530 5525 5536 5539 5543 5581 5600 5608 5615 5618 5605 5600 5597 5598 5596 5594 5588 5579 5581 5578 5575 5573 5576 5580 5597 5598
5548 5552 5559 5571 5582 5592 5596 5597 5590 5587 5579 5570 5561 5551 5541 5532 5522 5512 5507 5505 5505 5507 5514 5541 5544 5555 5579 5590 5599 5601 5606 5593 5590 5586 5580 5587 5577 5578 5588 5578 5582 5578 5572 5568 5571 5582 5585
5536 5541 5548 5560 5578 5581 5585 5585 5579 5572 5566 5554 5546 5537 5526 5514 5507 5500 5498 5490 5504 5497 5498 5520 5535 5547 5560 5563 5570 5587 5593 5585 5575 5575 5571 5568 5571 5586 5576 5570 5567 5563 5559 5558 5568 5576 5569
5523 5529 5539 5549 5564 5574 5573 5572 5565 5557 5546 5535 5526 5517 5506 5498 5491 5487 5486 5486 5486 5488 5476 5522 5546 5549 5555 5546 5558 5571 5578 5579 5571 5566 5564 5560 5577 5576 5569 5562 5557 5555 5552 5556 5559 5566 5570
5506 5516 5525 5537 5556 5558 5558 5556 5549 5540 5533 5520 5510 5502 5492 5484 5473 5476 5473 5475 5474 5473 5461 5522 5533 5553 5555 5543 5553 5566 5570 5567 5560 5559 5553 5555 5566 5563 5556 5557 5554 5549 5558 5559 5557 5551 5548
5486 5496 5510 5523 5528 5538 5539 5537 5532 5526 5515 5505 5492 5486 5476 5471 5463 5464 5467 5470 5465 5464 5447 5537 5535 5555 5554 5553 5567 5560 5562 5557 5549 5550 5546 5553 5557 5551 5549 5557 5554 5552 5561 5555 5554 5548 5543
5473 5478 5489 5500 5507 5507 5510 5507 5499 5494 5487 5479 5472 5464 5461 5454 5452 5454 5455 5461 5462 5456 5458 5527 5538 5536 5533 5542 5555 5553 5550 5554 5550 5542 5546 5544 5553 5553 5553 5557 5552 5561 5559 5553 5542 5540 5535
5459 5465 5471 5477 5485 5487 5488 5485 5481 5474 5465 5454 5449 5448 5448 5444 5440 5447 5449 5449 5446 5443 5507 5523 5528 5532 5531 5531 5541 5543 5538 5528 5527 5524 5526 5538 5542 5550 5552 5548 5551 5551 5541 5529 5527 5525 5538
5446 5451 5456 5459 5462 5466 5470 5467 5463 5459 5451 5444 5440 5439 5438 5437 5436 5438 5444 5441 5445 5486 5499 5516 5526 5524 5523 5528 5527 5530 5521 5511 5511 5521 5519 5523 5523 5530 5537 5540 5539 5537 5535 5524 5526 5528 5533
5431 5436 5440 5446 5446 5450 5453 5450 5448 5444 5440 5434 5429 5427 5427 5432 5431 5431 5430 5429 5451 5483 5490 5493 5514 5511 5509 5514 5517 5510 5500 5492 5496 5503 5516 5511 5515 5518 5524 5527 5528 5529 5522 5528 5523 5525 5524
5415 5417 5426 5431 5433 5436 5436 5437 5435 5432 5428 5424 5420 5418 5421 5427 5426 5423 5415 5434 5452 5466 5473 5480 5465 5471 5493 5496 5504 5502 5490 5486 5492 5493 5505 5497 5506 5502 5511 5515 5516 5518 5518 5505 5492 5510 5519
5403 5405 5409 5417 5421 5423 5422 5424 5422 5421 5417 5413 5412 5411 5414 5417 5418 5409 5413 5430 5455 5458 5465 5463 5470 5469 5481 5485 5488 5485 5476 5478 5486 5486 5490 5488 5490 5493 5503 5497 5491 5490 5494 5491 5490 5491 5499
5393 5396 5399 5403 5409 5411 5411 5411 5411 5409 5406 5402 5401 5399 5406 5407 5399 5405 5410 5436 5445 5446 5455 5456 5452 5463 5469 5473 5474 5470 5466 5471 5473 5480 5476 5476 5467 5463 5477 5480 5486 5488 5480 5480 5463 5473 5466
5384 5388 5392 5395 5398 5401 5401 5401 5401 5400 5398 5394 5395 5391 5393 5396 5398 5404 5420 5430 5431 5440 5437 5446 5450 5457 5459 5458 5460 5466 5457 5457 5466 5471 5465 5468 5449 5448 5457 5469 5473 5467 5465 5460 5452 5442 5441
5376 5381 5385 5388 5389 5391 5391 5392 5393 5392 5391 5389 5384 5372 5382 5385 5392 5399 5414 5420 5422 5432 5434 5441 5442 5448 5452 5452 5452 5451 5448 5449 5454 5462 5464 5463 5449 5453 5445 5451 5442 5444 5444 5441 5428 5376 5411
5370 5374 5377 5379 5381 5382 5382 5384 5384 5385 5385 5382 5381 5379 5393 5372 5385 5400 5418 5428 5427 5427 5435 5437 5434 5439 5444 5440 5438 5433 5437 5440 5445 5450 5444 5444 5439 5439 5436 5433 5429 5429 5428 5427 5416 5425 5396
5366 5367 5370 5373 5374 5374 5376 5376 5379 5379 5379 5377 5378 5388 5392 5396 5407 5408 5412 5424 5430 5427 5430 5428 5425 5430 5434 5430 5433 5428 5433 5433 5436 5434 5431 5421 5420 5422 5419 5422 5418 5421 5421 5416 5417 5422 5419
5360 5361 5364 5366 5366 5368 5370 5372 5373 5375 5376 5376 5382 5386 5389 5393 5402 5409 5414 5422 5420 5420 5420 5426 5424 5421 5421 5424 5428 5430 5430 5430 5431 5423 5418 5414 5395 5396 5404 5417 5416 5420 5430 5424 5418 5421 5423
5354 5356 5358 5359 5360 5362 5364 5366 5369 5374 5376 5378 5381 5382 5384 5389 5404 5411 5420 5420 5417 5420 5415 5418 5421 5421 5424 5424 5424 5422 5418 5414 5412 5410 5409 5392 5392 5378 5385 5400 5375 5418 5413 5409 5405 5414 5402
5350 5351 5353 5353 5355 5356 5360 5362 5366 5371 5375 5375 5377 5385 5390 5377 5401 5406 5410 5408 5409 5409 5408 5411 5413 5413 5415 5415 5413 5418 5412 5419 5414 5405 5399 5397 5384 5365 5358 5371 5399 5408 5395 5386 5392 5404 5386
5347 5347 5347 5348 5350 5352 5355 5358 5363 5368 5372 5376 5380 5384 5388 5385 5383 5394 5399 5404 5397 5397 5397 5404 5406 5406 5405 5385 5385 5397 5390 5407 5411 5405 5396 5389 5392 5379 5377 5353 5354 5374 5382 5389 5387 5399 5375
5342 5342 5343 5344 5346 5349 5352 5355 5361 5368 5374 5379 5379 5385 5390 5373 5381 5393 5395 5395 5393 5392 5389 5392 5396 5400 5394 5363 5356 5351 5383 5397 5391 5374 5396 5385 5381 5377 5373 5369 5375 5367 5377 5384 5399 5378 5368
5337 5338 5338 5341 5343 5346 5348 5353 5360 5368 5374 5380 5379 5386 5392 5378 5382 5390 5398 5394 5392 5391 5380 5382 5378 5379 5373 5369 5369 5343 5341 5367 5368 5347 5388 5390 5389 5389 5390 5380 5378 5363 5380 5374 5365 5362 5364
5333 5334 5336 5338 5340 5343 5346 5352 5360 5367 5374 5381 5380 5385 5391 5389 5381 5385 5393 5395 5398 5394 5380 5375 5377 5376 5369 5362 5358 5355 5361 5343 5354 5374 5379 5371 5367 5374 5373 5361 5360 5355 5355 5352 5355 5358 5358